WetterOnline ( http://www.wetteronline.at )

Wetter aktuell Wernigerode

Aktuelles Wetter: Wernigerode (240m)

6-stündlich | Neueste Meldungen
Ortszeit Temperatur Wetter
So, 21.01. 13:00 2.3° C wolkenlos
So, 21.01. 7:00 -0.5° C gefr. Sprühregen
So, 21.01. 1:00 -0.7° C bedeckt
Sa, 20.01. 19:00 0.4° C wolkig
Sa, 20.01. 13:00 4.1° C bedeckt
Sa, 20.01. 7:00 -0.8° C bedeckt
Sa, 20.01. 1:00 0.9° C bedeckt
Fr, 19.01. 19:00 2.4° C bedeckt
Ortszeit Temperatur Wetter
So, 21.01. 17:30 -0.8° C wolkig
So, 21.01. 17:20 -0.8° C wolkig
So, 21.01. 17:10 -0.5° C bewölkt
So, 21.01. 17:00 -0.3° C bewölkt
So, 21.01. 16:50 -0.3° C bewölkt
So, 21.01. 16:40 0.2° C bewölkt
So, 21.01. 16:30 0.4° C bewölkt
So, 21.01. 16:00 0.6° C bewölkt
So, 21.01. 15:30 0.8° C bewölkt
So, 21.01. 15:00 1.1° C bewölkt
So, 21.01. 14:30 1.2° C bewölkt
Ortszeit Relative Feuchte Sichtweite
So, 21.01. 13:00 79% 12 km
So, 21.01. 7:00 97% 1.3 km
So, 21.01. 1:00 94% 10 km
Sa, 20.01. 19:00 86% 26 km
Sa, 20.01. 13:00 61% 50 km
Sa, 20.01. 7:00 92% 26 km
Sa, 20.01. 1:00 90% 35 km
Fr, 19.01. 19:00 70% 9 km
Ortszeit Relative Feuchte Sichtweite
So, 21.01. 17:30 94% 2.9 km
So, 21.01. 17:20 94% -
So, 21.01. 17:10 96% -
So, 21.01. 17:00 94% 2.6 km
So, 21.01. 16:50 94% -
So, 21.01. 16:40 94% -
So, 21.01. 16:30 94% 3.7 km
So, 21.01. 16:00 92% 4.4 km
So, 21.01. 15:30 92% 5.0 km
So, 21.01. 15:00 88% 6 km
So, 21.01. 14:30 88% 6 km
Ortszeit Niederschlagsmenge Niederschlagsart
So, 21.01. 13:00 0.1 l/m2 in 6 Std. Schnee, Regen
So, 21.01. 7:00 1 l/m2 in 12 Std. Schnee, Regen
So, 21.01. 1:00 0.1 l/m2 in 6 Std. Schnee
Sa, 20.01. 19:00 0.1 l/m2 in 12 Std. Regen
Sa, 20.01. 13:00 0.1 l/m2 in 6 Std. Schnee
Sa, 20.01. 7:00 0.4 l/m2 in 12 Std. Schnee, Sprühregen
Sa, 20.01. 1:00 0.2 l/m2 in 6 Std. Schnee, Regen
Fr, 19.01. 19:00 0.1 l/m2 in 12 Std. Schnee, Regen
Ortszeit Niederschlagsmenge Niederschlagsart
So, 21.01. 17:30 0.0 l/m2 in 1 Std. -
So, 21.01. 17:20 keine Meldung -
So, 21.01. 17:10 keine Meldung -
So, 21.01. 17:00 0.0 l/m2 in 1 Std. -
So, 21.01. 16:50 keine Meldung -
So, 21.01. 16:40 keine Meldung -
So, 21.01. 16:30 0.0 l/m2 in 1 Std. -
So, 21.01. 16:00 0.0 l/m2 in 1 Std. -
So, 21.01. 15:30 0.0 l/m2 in 1 Std. -
So, 21.01. 15:00 0.0 l/m2 in 1 Std. -
So, 21.01. 14:30 0.0 l/m2 in 1 Std. -
Ortszeit Stärke Spitze Richtung
km/h Bft. km/h Grad Sektor
So, 21.01. 13:00 7 2 17 350° N
So, 21.01. 7:00 7 2 18 320° NW
So, 21.01. 1:00 0 0 11 - -
Sa, 20.01. 19:00 4 1 25 100° O
Sa, 20.01. 13:00 7 2 31 270° W
Sa, 20.01. 7:00 4 1 18 260° W
Sa, 20.01. 1:00 7 2 29 220° SW
Fr, 19.01. 19:00 11 2 36 220° SW
Ortszeit Stärke Spitze Richtung
km/h Bft. km/h Grad Sektor
So, 21.01. 17:30 4 1 7 50° NO
So, 21.01. 17:20 4 1 - 50° NO
So, 21.01. 17:10 2 1 - 60° NO
So, 21.01. 17:00 4 1 4 110° O
So, 21.01. 16:50 4 1 - 110° O
So, 21.01. 16:40 2 1 - 70° O
So, 21.01. 16:30 2 1 4 140° SO
So, 21.01. 16:00 0 0 11 - -
So, 21.01. 15:30 2 1 9 40° NO
So, 21.01. 15:00 4 1 11 350° N
So, 21.01. 14:30 4 1 11 340° N
Ortszeit Untergrenze Bedeckung Gattung
total tief tief mittel hoch
So, 21.01. 13:00 - 0/8 0/8 - - -
So, 21.01. 7:00 30 m 8/8 8/8 - - -
So, 21.01. 1:00 1170 m 8/8 8/8 - - -
Sa, 20.01. 19:00 420 m 8/8 1/8 - - -
Sa, 20.01. 13:00 900 m 8/8 8/8 - - -
Sa, 20.01. 7:00 750 m 8/8 8/8 - - -
Sa, 20.01. 1:00 1470 m 8/8 8/8 - - -
Fr, 19.01. 19:00 1500 m 8/8 8/8 - - -
Ortszeit Bedeckungsgrad in Achtel und Wolkenuntergrenze
So, 21.01. 17:30 5(510m) 5(1320m) 6(1500m)
So, 21.01. 17:20 5(510m) 5(1320m) 6(1500m)
So, 21.01. 17:10 7(480m)
So, 21.01. 17:00 1(390m) 6(510m) 7(1500m)
So, 21.01. 16:50 1(390m) 6(510m) 7(1500m)
So, 21.01. 16:40 2(180m) 3(360m) 7(540m)
So, 21.01. 16:30 5(150m) 7(270m) 7(540m)
So, 21.01. 16:00 4(150m) 6(420m) 7(1500m)
So, 21.01. 15:30 2(240m) 7(390m) 7(1500m)
So, 21.01. 15:00 7(240m) 7(390m)
So, 21.01. 14:30 3(270m) 7(510m) 7(690m)
Ortszeit Luftdruck NN (hPa) Tendenz (hPa in 3 Std.)
So, 21.01. 13:00 1015 + 2,3
So, 21.01. 7:00 1009 + 3,4
So, 21.01. 1:00 1003 + 0,8
Sa, 20.01. 19:00 1002 - 1,4
Sa, 20.01. 13:00 1006 - 1,3
Sa, 20.01. 7:00 1008 - 0,8
Sa, 20.01. 1:00 1009 0,0
Fr, 19.01. 19:00 1009 + 0,5
Ortszeit Luftdruck NN (hPa) Tendenz (hPa in 3 Std.)
So, 21.01. 17:30 1018 + 1,5
So, 21.01. 17:20 1018 keine Meldung
So, 21.01. 17:10 1018 keine Meldung
So, 21.01. 17:00 1018 + 1,7
So, 21.01. 16:50 1018 keine Meldung
So, 21.01. 16:40 1018 keine Meldung
So, 21.01. 16:30 1018 + 2,1
So, 21.01. 16:00 1017 + 2,1
So, 21.01. 15:30 1017 + 2,1
So, 21.01. 15:00 1017 + 2,1
So, 21.01. 14:30 1016 + 2,1
Ortszeit Schneehöhe (cm)
So, 21.01. 13:00 0
So, 21.01. 7:00 1
So, 21.01. 1:00 0
Sa, 20.01. 19:00 0
Sa, 20.01. 13:00 0
Sa, 20.01. 7:00 0
Sa, 20.01. 1:00 0
Fr, 19.01. 19:00 0
Ortszeit Schneehöhe (cm)
So, 21.01. 17:30 0
So, 21.01. 17:20 0
So, 21.01. 17:10 0
So, 21.01. 17:00 0
So, 21.01. 16:50 0
So, 21.01. 16:40 0
So, 21.01. 16:30 0
So, 21.01. 16:00 0
So, 21.01. 15:30 0
So, 21.01. 15:00 0
So, 21.01. 14:30 0
Link zu dieser Seite / Seite empfehlen

Das Wetter in ...